TimeCDT,TemperatureF,Dew PointF,Humidity,Sea Level PressureIn,VisibilityMPH,Wind Direction,Wind SpeedMPH,Gust SpeedMPH,PrecipitationIn,Events,Conditions,WindDirDegrees,DateUTC
12:53 AM,57.0,39.9,53,29.89,10.0,SSW,10.4,-,N/A,,Clear,200,2013-10-08 05:53:00
1:53 AM,55.9,39.9,55,29.88,10.0,SSW,13.8,-,N/A,,Clear,200,2013-10-08 06:53:00
2:53 AM,55.0,39.9,57,29.88,10.0,South,10.4,-,N/A,,Clear,190,2013-10-08 07:53:00
3:53 AM,54.0,39.9,59,29.86,10.0,South,10.4,-,N/A,,Clear,190,2013-10-08 08:53:00
4:53 AM,52.0,39.9,63,29.86,10.0,South,6.9,-,N/A,,Clear,180,2013-10-08 09:53:00
5:53 AM,52.0,39.0,61,29.85,10.0,South,6.9,-,N/A,,Clear,180,2013-10-08 10:53:00
6:53 AM,52.0,39.0,61,29.85,10.0,South,10.4,-,N/A,,Clear,190,2013-10-08 11:53:00
7:53 AM,52.0,39.0,61,29.85,10.0,South,10.4,-,N/A,,Clear,170,2013-10-08 12:53:00
8:53 AM,55.0,39.0,55,29.85,10.0,South,13.8,20.7,N/A,,Clear,170,2013-10-08 13:53:00
9:53 AM,59.0,39.9,49,29.85,10.0,South,13.8,21.9,N/A,,Clear,190,2013-10-08 14:53:00
10:53 AM,64.0,39.9,41,29.83,10.0,South,18.4,25.3,N/A,,Clear,180,2013-10-08 15:53:00
11:53 AM,68.0,39.9,36,29.82,10.0,South,17.3,25.3,N/A,,Clear,180,2013-10-08 16:53:00
12:53 PM,70.0,39.0,32,29.80,10.0,South,18.4,26.5,N/A,,Clear,180,2013-10-08 17:53:00
1:53 PM,75.0,39.0,27,29.77,10.0,South,23.0,31.1,N/A,,Clear,180,2013-10-08 18:53:00
2:53 PM,75.9,39.0,26,29.75,10.0,South,20.7,28.8,N/A,,Clear,190,2013-10-08 19:53:00
3:53 PM,80.1,37.9,22,29.73,10.0,South,24.2,32.2,N/A,,Clear,190,2013-10-08 20:53:00
4:53 PM,77.0,37.9,24,29.73,10.0,South,16.1,26.5,N/A,,Clear,190,2013-10-08 21:53:00
5:53 PM,78.1,37.9,24,29.74,10.0,South,19.6,25.3,N/A,,Clear,180,2013-10-08 22:53:00
6:53 PM,73.9,39.0,28,29.75,10.0,SSE,12.7,-,N/A,,Clear,160,2013-10-08 23:53:00
7:53 PM,69.1,41.0,36,29.77,10.0,SSE,11.5,-,N/A,,Clear,150,2013-10-09 00:53:00
8:53 PM,66.0,43.0,43,29.79,10.0,SSE,11.5,-,N/A,,Clear,150,2013-10-09 01:53:00
9:53 PM,64.0,43.0,46,29.81,10.0,SSE,9.2,-,N/A,,Clear,150,2013-10-09 02:53:00
10:53 PM,64.0,43.0,46,29.81,10.0,SSE,10.4,-,N/A,,Clear,160,2013-10-09 03:53:00
11:53 PM,60.1,44.1,55,29.82,10.0,ESE,4.6,-,N/A,,Clear,120,2013-10-09 04:53:00